Location: Bosdarros
(43.2167°N, 0.3667°W)
Time: 16:04:46
(UTC+00:00)

Cosmos 2292 Rocket - Pass Details

Date: 22 April 2021
Orbit: 380 x 1448 km, 83.0° (Epoch: 13 May)

Event Time Altitude Azimuth Distance (km) Brightness Sun altitude
Rises 19:54:43 0° 354° (N) 3,934 8.2 -11.2°
Reaches altitude 10° 19:57:43 10° 358° (N) 2,801 7.3 -11.6°
Maximum altitude 20:03:57 59° 77° (ENE) 932 4.2 -12.6°
Enters shadow 20:07:57 14° 156° (SSE) 1,854 5.5 -13.2°
